This is the latest recevied weather packets stored in our database for station/object KF7ROW. If no packets are shown the sender has not sent any weather packets the latest 10 day(s).
| Time | Temp. | Humidity | Pressure | Rain* | Wind** | Luminosity | Snow |
|---|---|---|---|---|---|---|---|
| 1777407682 | 13.33° C | 63% | 1028.6 hPa | 0 mm | - | 846 W/m² | - |
| 1777407381 | 13.33° C | 63% | 1028.7 hPa | 0 mm | - | 807 W/m² | - |
| 1777407077 | 13.89° C | 59% | 1028.8 hPa | 0 mm | - | 560 W/m² | - |
| 1777406772 | 13.89° C | 62% | 1028.8 hPa | 0 mm | - | 916 W/m² | - |
| 1777406467 | 13.33° C | 60% | 1029 hPa | 0 mm | - | 844 W/m² | - |
| 1777406162 | 13.33° C | 60% | 1028.7 hPa | 0 mm | - | 655 W/m² | - |
| 1777405857 | 13.33° C | 62% | 1028.7 hPa | 0 mm | - | 744 W/m² | - |
| 1777405554 | 12.78° C | 60% | 1028.9 hPa | 0 mm | - | 352 W/m² | - |
| 1777405251 | 13.33° C | 62% | 1029 hPa | 0 mm | - | 333 W/m² | - |
| 1777404950 | 13.33° C | 61% | 1028.9 hPa | 0 mm | - | 394 W/m² | - |
| 1777404646 | 13.33° C | 63% | 1029 hPa | 0 mm | - | 506 W/m² | - |
| 1777404342 | 13.33° C | 62% | 1029 hPa | 0 mm | - | 480 W/m² | - |
| 1777404039 | 12.78° C | 62% | 1029 hPa | 0 mm | - | 681 W/m² | - |
| 1777403734 | 12.78° C | 64% | 1029.1 hPa | 0 mm | - | 396 W/m² | - |
| 1777403432 | 12.78° C | 65% | 1029.1 hPa | 0 mm | - | 410 W/m² | - |
| 1777403127 | 12.22° C | 68% | 1029.2 hPa | 0 mm | - | 337 W/m² | - |
| 1777402823 | 12.22° C | 68% | 1029.1 hPa | 0 mm | - | 294 W/m² | - |
| 1777402520 | 12.22° C | 70% | 1029 hPa | 0 mm | - | 242 W/m² | - |
| 1777402217 | 12.22° C | 71% | 1029.3 hPa | 0 mm | - | 217 W/m² | - |
| 1777401912 | 12.22° C | 71% | 1029 hPa | 0 mm | - | 202 W/m² | - |
| 1777401611 | 12.22° C | 73% | 1029 hPa | 0 mm | - | 219 W/m² | - |
| 1777401308 | 12.22° C | 70% | 1029 hPa | 0 mm | - | 181 W/m² | - |
| 1777401003 | 12.78° C | 69% | 1028.8 hPa | 0 mm | - | 144 W/m² | - |
| 1777400699 | 12.78° C | 70% | 1028.9 hPa | 0 mm | - | 171 W/m² | - |
| 1777400397 | 13.33° C | 68% | 1028.7 hPa | 0 mm | - | 198 W/m² | - |
* Rain latest hour (hover to see other rain measurements)
** Current wind speed in m/s (hover to see current wind gust speed)